Weather History for Newark Heath, OH

Change the Weather History Date:

Sunday, February 3, 2013

  Actual Average Record
Temperature  
Mean Temperature 22 °F -  
Max Temperature 26 °F 37 °F 56 °F (1991)
Min Temperature 18 °F 19 °F -26 °F (1951)
Degree Days  
Heating Degree Days 42    
Moisture  
Dew Point 16 °F    
Average Humidity 78    
Maximum Humidity 93    
Minimum Humidity 63    
Precipitation  
Precipitation 0.02 in - - ()
Sea Level Pressure  
Sea Level Pressure 29.95 in    
Wind  
Wind Speed 5 mph (West)    
Max Wind Speed 16 mph    
Max Gust Speed -    
Visibility 5 miles    
Events Snow    
Averages and records for this station are not official NWS values.
T = Trace of Precipitation, MM = Missing Value Source: NWS Daily Summary

Daily Weather History Graph

Daily Weather History Graph

Search for Another Location

Airport:

Trip Planner

Search our weather history database for the weather conditions in past years. The results will help you decide how hot, cold, wet, or windy it might be!

Date:

Astronomy

Feb. 03, 2013 Rise Set
Actual Time 7:36 AM EST 5:51 PM EST
Civil Twilight 7:07 AM EST 6:20 PM EST
Nautical Twilight 6:35 AM EST 6:52 PM EST
Astronomical Twilight 6:03 AM EST 7:24 PM EST
Moon 1:02 AM EST (2/3) 11:28 AM EST (2/3)
Length of Visible Light 11h 12m
Length of Day
10h 15m
Waning Gibbous, 49% of the Moon is Illuminated
Feb 3
Waning Gibbous
Feb 10
New
Feb 17
First Quarter
Feb 25
Full
Mar 4
Last Quarter

Hourly Weather History & Observations

Time (EST) Temp. Windchill Dew Point Humidity Pressure Visibility Wind Dir Wind Speed Gust Speed Precip Events Conditions
12:54 AM 26.1 °F 19.4 °F 21.0 °F 81% 29.99 in 10.0 mi WSW 5.8 mph - N/A   Overcast
1:54 AM 26.1 °F 19.4 °F 21.0 °F 81% 29.98 in 10.0 mi West 5.8 mph - N/A   Overcast
2:54 AM 25.0 °F 20.7 °F 19.9 °F 81% 29.96 in 6.0 mi West 3.5 mph - N/A   Haze
3:54 AM 25.0 °F 19.3 °F 19.9 °F 81% 29.94 in 7.0 mi WSW 4.6 mph - N/A   Overcast
4:46 AM 24.8 °F 19.1 °F 19.4 °F 80% 29.90 in 4.0 mi West 4.6 mph - 0.00 in Snow Light Snow
4:54 AM 25.0 °F 19.3 °F 19.9 °F 81% 29.93 in 2.5 mi West 4.6 mph - 0.00 in Snow Light Snow
5:00 AM 24.8 °F 19.1 °F 19.4 °F 80% 29.89 in 3.0 mi WSW 4.6 mph - 0.00 in Snow Light Snow
5:54 AM 23.0 °F 18.4 °F 19.0 °F 85% 29.92 in 4.0 mi SW 3.5 mph - 0.00 in   Overcast
6:27 AM 19.4 °F 14.3 °F 17.6 °F 93% 29.88 in 2.5 mi WNW 3.5 mph - 0.00 in Snow Light Snow
6:42 AM 21.2 °F 16.4 °F 19.4 °F 93% 29.88 in 3.0 mi WNW 3.5 mph - 0.00 in Snow Light Snow
7:54 AM 21.9 °F - 18.0 °F 85% 29.92 in 7.0 mi Calm Calm - 0.00 in   Overcast
8:54 AM 21.9 °F - 16.0 °F 78% 29.92 in 4.0 mi Calm Calm - 0.00 in Snow Light Snow
9:08 AM 21.2 °F - 17.6 °F 86% 29.89 in 2.0 mi Calm Calm - 0.00 in Snow Light Snow
9:15 AM 21.2 °F - 17.6 °F 86% 29.89 in 1.5 mi Calm Calm - 0.00 in Snow Light Snow
9:54 AM 21.9 °F - 18.0 °F 85% 29.92 in 1.2 mi Calm Calm - 0.01 in Snow Light Snow
10:54 AM 23.0 °F 18.4 °F 18.0 °F 81% 29.93 in 1.5 mi WNW 3.5 mph - 0.00 in Snow Light Snow
11:54 AM 21.9 °F 12.5 °F 17.1 °F 82% 29.93 in 1.0 mi SW 8.1 mph - 0.00 in Snow Light Snow
12:04 PM 21.2 °F 12.6 °F 17.6 °F 86% 29.89 in 1.5 mi WSW 6.9 mph - 0.00 in Snow Light Snow
12:33 PM 21.2 °F 11.7 °F 17.6 °F 86% 29.89 in 1.0 mi WSW 8.1 mph - 0.00 in Snow Light Snow
12:42 PM 23.0 °F 15.8 °F 17.6 °F 80% 29.88 in 0.5 mi West 5.8 mph - 0.00 in Snow Snow
12:54 PM 23.0 °F 15.8 °F 17.1 °F 78% 29.92 in 2.0 mi WNW 5.8 mph - 0.01 in Snow Light Snow
1:08 PM 23.0 °F 14.7 °F 15.8 °F 74% 29.89 in 2.5 mi WNW 6.9 mph - 0.00 in Snow Light Snow
1:49 PM 23.0 °F 15.8 °F 15.8 °F 74% 29.89 in 3.0 mi WNW 5.8 mph - 0.00 in Snow Light Snow
1:54 PM 23.0 °F 14.7 °F 16.0 °F 74% 29.92 in 1.8 mi WNW 6.9 mph - 0.00 in Snow Light Snow
2:08 PM 23.0 °F - 15.8 °F 74% 29.89 in 3.0 mi Calm Calm - 0.00 in Snow Light Snow
2:54 PM 23.0 °F 13.1 °F 12.0 °F 63% 29.94 in 7.0 mi West 9.2 mph - 0.00 in   Overcast
3:54 PM 21.9 °F 8.2 °F 12.0 °F 66% 29.97 in 7.0 mi West 16.1 mph - N/A   Overcast
4:54 PM 21.0 °F 9.3 °F 10.9 °F 65% 30.00 in 10.0 mi West 11.5 mph - 0.00 in   Overcast
5:54 PM 19.9 °F 8.6 °F 10.0 °F 65% 30.02 in 10.0 mi West 10.4 mph - N/A   Overcast
6:54 PM 19.9 °F 10.1 °F 12.0 °F 71% 30.05 in 10.0 mi West 8.1 mph - N/A   Overcast
7:54 PM 21.0 °F 9.3 °F 12.0 °F 68% 30.07 in 10.0 mi WSW 11.5 mph - N/A   Overcast
8:54 PM 21.0 °F 9.9 °F 12.9 °F 71% 30.09 in 10.0 mi WSW 10.4 mph - N/A   Overcast
9:54 PM 19.0 °F 9.0 °F 10.9 °F 71% 30.10 in 10.0 mi WSW 8.1 mph - N/A   Partly Cloudy
10:54 PM 19.9 °F 13.4 °F 12.9 °F 74% 30.09 in 10.0 mi SW 4.6 mph - N/A   Overcast
11:54 PM 18.0 °F 7.7 °F 10.9 °F 74% 30.11 in 10.0 mi West 8.1 mph - N/A   Scattered Clouds